Vertical_Velocity
1 -0 -0 1 1 0 0 1 2 -1 -1 -1 -2 2 -1 0 2 -0 1 0 0 -1 1 1 -1 1 0 -2 -2 0 1 0 -1 -1 -0 -2 -1 -3
1 -0 3 -0 1 -1 -2 -1 -0 -1 4 1 -0 1 2 1 -0 2 0 -0 0 1 1 -0 -2 -1 -1 -0 0 0 -2 -1 -1 -1 -4 -1 0 0
2 2 2 -3 -2 0 -1 -2 -3 0 -1 4 -1 -1 -0 -1 0 0 1 -0 2 -0 -1 -2 -1 2 -1 0 -2 -1 -0 -3 -2 -2 -2 -1 -2 -1
4 -4 -3 -0 1 0 -1 -2 -1 1 -0 0 -0 0 -1 0 0 -1 -2 -0 -1 1 -2 -2 2 -1 -1 -3 -1 0 -0 -2 -1 -1 0 2 -1 -0
5 3 4 -1 -0 -1 1 1 -0 -2 -1 -1 -3 1 -1 -1 1 1 0 -1 -1 1 1 -1 -0 -0 -2 -0 1 -1 -1 -0 -1 -2 -0 1 -1 -0
1 -2 -1 1 -1 0 1 -0 1 1 1 -0 -1 0 -0 0 -2 0 -2 2 -1 -3 -0 -2 -2 -1 -2 -0 1 -1 -1 1 1 -1 1 -0 -0 -2
-0 -0 2 -0 -2 1 1 1 1 0 -1 -2 -2 -0 -1 0 -1 2 -2 1 -0 -2 0 0 1 -1 -0 -0 -0 -1 -1 0 -1 -1 -2 -2 -2 -2
1 1 1 -0 -2 0 -0 0 1 1 0 -2 -1 -1 -1 -0 4 1 -2 -2 0 1 -2 1 -3 -1 -1 -0 -3 -2 -2 -2 -1 -1 -1 -1 -1 -2
-1 1 1 -0 -1 -0 -1 1 1 1 -2 -2 -1 -0 -1 1 -1 -0 1 -0 -0 0 0 0 -2 -1 -1 -1 -0 -1 -0 0 -0 -2 -2 -2 -2 -0
0 0 1 -1 1 1 -0 0 2 -0 -0 -1 -1 0 1 1 1 0 -1 -0 -0 -0 1 -0 -1 0 0 0 -1 -1 -1 -1 -2 -2 -2 -1 -0 0
-3 2 1 0 0 -0 1 1 1 0 -0 -0 0 1 -0 -1 -0 -1 -2 -1 0 -1 -1 -0 0 -0 0 -2 -2 -1 -2 -2 -2 -1 -0 0 -1 -1
0 -5 -0 -0 -1 0 1 2 0 0 -1 -1 -1 0 1 0 -1 -1 -0 -0 -0 1 0 -1 -1 -2 -0 -0 -1 -1 -2 -1 -1 -1 0 0 -1 -0
-2 1 -0 -0 -0 0 1 1 0 -0 -2 -0 1 1 -0 -0 0 0 -0 -1 -0 -1 -1 -1 -1 -1 -1 -2 -1 -2 -1 -1 -2 -1 -1 -1 -1 -0
0 0 0 -0 -0 1 0 -0 -0 -1 -0 1 1 1 1 -0 -0 -0 -1 -1 -1 -2 -1 -2 -2 -2 -1 -1 -1 -1 -1 -0 -1 -1 -1 -1 -0 -0
1 0 -0 0 0 0 -1 0 0 -0 1 1 1 -0 -1 -1 -1 -1 -0 -1 -1 -1 -2 -1 -1 -1 -1 -1 -1 -1 -3 1 0 -1 -2 -1 -1 -1
0 -0 -1 0 0 -0 1 1 1 0 1 1 -0 -1 -0 0 1 -0 -1 -1 -1 -1 -0 -1 -2 -1 0 -0 -1 -1 -1 -2 -0 1 -1 -2 0 2
1 0 0 1 0 -0 -0 0 0 1 1 1 -1 0 1 -0 -0 -1 -2 -2 -1 -1 -2 -0 0 -1 -1 -1 -1 -1 -1 -1 -0 2 2 -0 -7 0
-1 0 1 -0 -0 -1 -0 0 1 1 1 0 1 -0 -1 -2 -2 -2 -2 -2 -2 -1 -0 -1 -1 -0 -2 -1 -0 0 0 1 -1 -1 -0 2 1 -4
-0 0 -0 -0 -0 -1 -0 -1 -1 -0 0 1 -1 -2 -1 -1 -2 -2 -1 -0 -1 -1 -0 -1 -3 -3 -2 1 -0 1 -0 -1 -0 -2 -3 -4 -2 -2
0 -1 -0 -0 0 -1 0 -1 -1 0 -0 -1 -0 -0 -1 -1 -1 -0 -0 -0 -1 -1 -2 -3 -1 1 1 -1 -3 1 1 0 -0 -2 -0 -1 -2 -4
0 -0 -0 0 -1 -0 -1 -0 -1 -1 -0 -1 -1 -1 -0 -0 -0 -0 -1 -2 -2 -2 -1 -0 1 1 0 1 -0 -3 -2 -2 -2 -1 1 2 1 5
-2 -0 -0 -1 -0 -1 -1 -0 -1 -1 -1 -2 -1 -1 0 -0 -1 -1 -2 -2 -1 0 0 1 1 1 0 -2 -2 0 0 -1 -5 -4 -6 -8 -9 -12
-1 -1 -1 -0 -0 -1 -1 -0 -0 -1 -1 -1 -0 0 0 0 -1 -1 -1 -0 1 0 -1 1 0 -1 -2 -0 0 -0 -1 -2 -1 2 8 -1 2 -3
Height
3076 3078 3078 3079 3078 3077 3076 3076 3076 3076 3075 3073 3072 3071 3070 3070 3070 3070 3069 3068 3068 3067 3067 3067 3065 3065 3064 3064 3063 3062 3061 3059 3058 3057 3056 3056 3055 3056
3071 3072 3072 3073 3073 3071 3070 3070 3070 3070 3069 3067 3065 3064 3063 3062 3061 3061 3061 3060 3060 3060 3059 3058 3057 3056 3056 3055 3054 3053 3052 3052 3051 3049 3048 3047 3046 3047
3064 3065 3065 3066 3065 3064 3064 3063 3062 3062 3062 3061 3059 3056 3056 3056 3055 3054 3053 3053 3053 3052 3051 3051 3050 3050 3049 3048 3048 3047 3046 3045 3043 3042 3040 3038 3038 3037
3057 3058 3059 3059 3059 3057 3056 3055 3055 3054 3054 3053 3052 3050 3049 3048 3048 3048 3047 3046 3046 3046 3045 3045 3045 3043 3043 3043 3042 3040 3039 3038 3037 3035 3033 3032 3031 3030
3051 3052 3053 3053 3052 3050 3050 3049 3048 3047 3046 3046 3045 3044 3044 3043 3043 3042 3041 3041 3040 3039 3039 3039 3039 3039 3038 3037 3036 3035 3034 3033 3031 3030 3029 3028 3028 3027
3044 3044 3046 3046 3044 3043 3042 3041 3040 3039 3039 3039 3039 3039 3039 3039 3038 3038 3037 3036 3036 3035 3035 3035 3035 3035 3034 3033 3033 3031 3030 3029 3028 3027 3026 3025 3024 3023
3036 3038 3039 3039 3038 3037 3036 3035 3034 3033 3033 3034 3035 3035 3035 3034 3033 3032 3032 3032 3032 3032 3032 3031 3031 3031 3031 3030 3029 3028 3027 3026 3025 3024 3023 3021 3019 3018
3029 3032 3032 3032 3031 3030 3030 3029 3029 3029 3029 3030 3031 3031 3030 3030 3029 3029 3029 3029 3029 3029 3029 3029 3028 3028 3027 3027 3025 3024 3023 3022 3021 3019 3017 3016 3014 3013
3023 3025 3026 3026 3025 3025 3024 3024 3024 3025 3026 3027 3027 3027 3027 3027 3027 3027 3027 3027 3027 3027 3027 3026 3025 3025 3023 3022 3021 3019 3018 3016 3014 3013 3012 3010 3008 3006
3018 3019 3020 3020 3020 3020 3020 3020 3020 3022 3023 3023 3024 3024 3025 3025 3025 3025 3025 3024 3024 3023 3023 3022 3021 3020 3018 3017 3015 3013 3011 3009 3007 3006 3004 3002 3000 2999
3014 3015 3016 3016 3016 3016 3016 3016 3017 3019 3020 3021 3022 3023 3023 3023 3023 3022 3022 3022 3021 3020 3019 3018 3017 3015 3013 3011 3009 3007 3005 3003 3000 2998 2996 2994 2992 2991
3010 3010 3011 3011 3011 3012 3013 3013 3015 3016 3017 3018 3019 3020 3020 3020 3020 3020 3019 3019 3018 3017 3016 3014 3012 3010 3008 3006 3004 3002 2998 2995 2993 2991 2989 2987 2985 2983
3007 3007 3007 3007 3008 3009 3009 3011 3012 3013 3014 3015 3016 3016 3016 3017 3017 3017 3016 3016 3014 3013 3011 3009 3007 3004 3001 2998 2996 2994 2992 2989 2987 2984 2981 2979 2977 2975
3004 3003 3003 3004 3005 3005 3007 3008 3009 3010 3011 3012 3013 3013 3014 3014 3014 3013 3013 3012 3010 3008 3006 3003 3000 2997 2993 2991 2988 2987 2985 2984 2981 2979 2976 2973 2971 2969
3001 3001 3002 3002 3002 3003 3004 3005 3006 3007 3008 3009 3009 3010 3011 3011 3010 3010 3009 3007 3005 3002 2999 2996 2992 2989 2987 2985 2984 2982 2980 2978 2976 2974 2971 2969 2967 2964
2999 3000 3000 3000 3000 3000 3001 3002 3003 3004 3005 3006 3006 3007 3008 3007 3006 3005 3004 3002 3000 2996 2993 2989 2986 2984 2983 2981 2979 2978 2976 2975 2972 2970 2967 2964 2962 2961
2997 2998 2998 2998 2998 2997 2998 2999 3000 3000 3001 3002 3003 3004 3003 3003 3002 3000 2999 2997 2994 2990 2987 2984 2982 2980 2978 2977 2976 2974 2972 2970 2967 2966 2964 2960 2955 2955
2994 2995 2995 2995 2995 2994 2995 2995 2996 2997 2998 2999 3000 2999 2999 2998 2997 2996 2994 2991 2988 2985 2982 2980 2978 2978 2976 2974 2972 2970 2968 2965 2962 2960 2958 2956 2953 2947
2990 2991 2991 2991 2991 2991 2991 2991 2992 2993 2994 2995 2995 2995 2994 2993 2992 2991 2988 2986 2983 2980 2979 2977 2976 2973 2971 2970 2969 2967 2963 2961 2958 2956 2952 2949 2947 2944
2986 2987 2987 2987 2986 2986 2986 2986 2987 2988 2989 2990 2990 2990 2990 2989 2988 2986 2983 2980 2978 2976 2976 2974 2973 2971 2969 2966 2962 2961 2960 2958 2955 2952 2949 2945 2940 2935
2981 2982 2982 2982 2981 2981 2981 2981 2982 2983 2984 2985 2986 2986 2986 2985 2984 2981 2978 2976 2974 2973 2972 2971 2969 2968 2966 2964 2961 2957 2955 2953 2949 2945 2942 2939 2936 2933
2975 2976 2977 2976 2976 2976 2976 2976 2977 2978 2979 2980 2981 2981 2981 2980 2978 2976 2974 2972 2971 2971 2969 2968 2966 2964 2963 2960 2958 2955 2952 2947 2942 2938 2932 2926 2923 2922
2969 2970 2970 2970 2971 2971 2971 2971 2972 2973 2974 2975 2976 2977 2976 2975 2973 2971 2970 2969 2968 2967 2966 2964 2962 2961 2959 2957 2954 2951 2948 2945 2942 2939 2934 2924 2919 2914